When you browse on this site, cookies collect data to enhance your experience and personalize the content and advertising you see.
Visit our Privacy Policy to learn more. By continuing to use the site, you agree to this use of cookies and data.
  • Em Portugal
  • Lista de países
  • Para 7 dias
  • Temperatura da água
  • Mapa do tempo
  • Widgets de tempo
  • user-avatar
    Iniciar Sessão

    Previsão horária em Wexford

    Hoje, 26 Agosto, Segunda-feira

    Tempo Temperatura Precipitação Vento Pressão Humidade
    00:00 +15°C° 0 mm 1 m/s 764 mmHg 90%
    01:00 +14°C° 0 mm 1 m/s 764 mmHg 91%
    02:00 +14°C° 0 mm 1 m/s 764 mmHg 91%
    03:00 +12°C° 0 mm 0 m/s 764 mmHg 91%
    04:00 +13°C° 0 mm 1 m/s 764 mmHg 91%
    05:00 +13°C° 0 mm 1 m/s 764 mmHg 91%
    06:00 +13°C° 0 mm 1 m/s 764 mmHg 92%
    07:00 +15°C° 0 mm 1 m/s 764 mmHg 88%
    08:00 +16°C° 0 mm 1 m/s 764 mmHg 84%
    09:00 +19°C° 0 mm 1 m/s 764 mmHg 81%
    10:00 +19°C° 0 mm 2 m/s 764 mmHg 77%
    11:00 +20°C° 0 mm 2 m/s 764 mmHg 72%
    12:00 +20°C° 0 mm 2 m/s 763 mmHg 68%
    13:00 +20°C° 0 mm 3 m/s 763 mmHg 69%
    14:00 +20°C° 0 mm 4 m/s 763 mmHg 69%
    15:00 +20°C° 0 mm 5 m/s 763 mmHg 70%
    16:00 +19°C° 0 mm 5 m/s 763 mmHg 75%
    17:00 +17°C° 0 mm 5 m/s 762 mmHg 80%
    18:00 +16°C° 0 mm 5 m/s 762 mmHg 85%
    19:00 +15°C° 0 mm 5 m/s 762 mmHg 88%
    20:00 +14°C° 0 mm 4 m/s 762 mmHg 91%
    21:00 +13°C° 0 mm 4 m/s 762 mmHg 94%
    22:00 +13°C° 0 mm 4 m/s 762 mmHg 94%
    23:00 +12°C° 0 mm 4 m/s 762 mmHg 94%

    Amanhã, 27 Agosto, Terça-feira

    Tempo Temperatura Precipitação Vento Pressão Humidade
    00:00 +12°C° 0 mm 4 m/s 762 mmHg 95%
    01:00 +11°C° 0 mm 4 m/s 761 mmHg 95%
    02:00 +11°C° 0 mm 3 m/s 761 mmHg 95%
    03:00 +11°C° 0 mm 3 m/s 761 mmHg 95%
    04:00 +11°C° 0 mm 3 m/s 761 mmHg 95%
    05:00 +12°C° 0 mm 3 m/s 761 mmHg 96%
    06:00 +12°C° 0 mm 4 m/s 761 mmHg 96%
    07:00 +13°C° 0 mm 4 m/s 761 mmHg 93%
    08:00 +15°C° 0 mm 4 m/s 760 mmHg 90%
    09:00 +16°C° 0 mm 5 m/s 760 mmHg 87%
    10:00 +17°C° 0 mm 5 m/s 760 mmHg 85%
    11:00 +17°C° 0 mm 5 m/s 760 mmHg 83%
    12:00 +17°C° 0 mm 6 m/s 760 mmHg 81%
    13:00 +17°C° 0 mm 6 m/s 760 mmHg 82%
    14:00 +17°C° 0 mm 6 m/s 759 mmHg 82%
    15:00 +17°C° 0 mm 6 m/s 759 mmHg 82%
    16:00 +17°C° 0 mm 6 m/s 759 mmHg 85%
    17:00 +16°C° 0 mm 6 m/s 759 mmHg 87%
    18:00 +16°C° 0 mm 6 m/s 759 mmHg 89%
    19:00 +16°C° 0.2 mm 6 m/s 759 mmHg 91%
    20:00 +16°C° 0.2 mm 6 m/s 759 mmHg 93%
    21:00 +16°C° 0.2 mm 6 m/s 759 mmHg 95%
    22:00 +15°C° 0.5 mm 6 m/s 759 mmHg 94%
    23:00 +14°C° 0.5 mm 5 m/s 759 mmHg 94%

    Depois de amanhã, 28 Agosto, Quarta-feira

    Tempo Temperatura Precipitação Vento Pressão Humidade
    00:00 +14°C° 0.5 mm 5 m/s 759 mmHg 93%
    01:00 +13°C° 1.4 mm 4 m/s 759 mmHg 94%
    02:00 +13°C° 1.4 mm 3 m/s 758 mmHg 96%
    03:00 +14°C° 1.4 mm 2 m/s 758 mmHg 97%
    04:00 +14°C° 0.9 mm 2 m/s 758 mmHg 96%
    05:00 +13°C° 0.9 mm 2 m/s 758 mmHg 96%
    06:00 +12°C° 0.9 mm 3 m/s 758 mmHg 95%
    07:00 +12°C° 0.4 mm 3 m/s 758 mmHg 94%
    08:00 +12°C° 0.4 mm 3 m/s 758 mmHg 92%
    09:00 +13°C° 0.4 mm 4 m/s 758 mmHg 90%
    10:00 +13°C° 0 mm 4 m/s 758 mmHg 84%
    11:00 +14°C° 0 mm 4 m/s 758 mmHg 77%
    12:00 +15°C° 0 mm 4 m/s 758 mmHg 70%
    13:00 +17°C° 0 mm 4 m/s 759 mmHg 68%
    14:00 +17°C° 0 mm 4 m/s 759 mmHg 66%
    15:00 +18°C° 0 mm 3 m/s 759 mmHg 64%
    16:00 +17°C° 0 mm 4 m/s 759 mmHg 69%
    17:00 +17°C° 0 mm 4 m/s 759 mmHg 74%
    18:00 +17°C° 0 mm 4 m/s 760 mmHg 79%
    19:00 +14°C° 0 mm 4 m/s 760 mmHg 82%
    20:00 +13°C° 0 mm 3 m/s 760 mmHg 85%
    21:00 +11°C° 0 mm 3 m/s 761 mmHg 88%
    22:00 +11°C° 0 mm 3 m/s 761 mmHg 88%
    23:00 +11°C° 0 mm 4 m/s 761 mmHg 89%

    29 Agosto, Quinta-feira

    Tempo Temperatura Precipitação Vento Pressão Humidade
    00:00 +10°C° 0 mm 4 m/s 761 mmHg 90%
    01:00 +10°C° 0 mm 4 m/s 762 mmHg 91%
    02:00 +10°C° 0 mm 4 m/s 762 mmHg 91%
    03:00 +8°C° 0 mm 4 m/s 762 mmHg 92%
    04:00 +8°C° 0 mm 4 m/s 762 mmHg 91%
    05:00 +8°C° 0 mm 4 m/s 762 mmHg 91%
    06:00 +8°C° 0 mm 4 m/s 762 mmHg 91%
    07:00 +11°C° 0 mm 4 m/s 762 mmHg 85%
    08:00 +13°C° 0 mm 5 m/s 762 mmHg 79%
    09:00 +14°C° 0 mm 5 m/s 763 mmHg 73%
    10:00 +15°C° 0 mm 6 m/s 763 mmHg 72%
    11:00 +16°C° 0 mm 7 m/s 763 mmHg 71%
    12:00 +16°C° 0 mm 7 m/s 763 mmHg 70%
    13:00 +17°C° 0 mm 8 m/s 763 mmHg 72%
    14:00 +17°C° 0 mm 8 m/s 763 mmHg 74%
    15:00 +17°C° 0 mm 9 m/s 763 mmHg 75%
    16:00 +17°C° 0 mm 8 m/s 763 mmHg 78%
    17:00 +16°C° 0 mm 8 m/s 763 mmHg 80%
    18:00 +16°C° 0 mm 8 m/s 763 mmHg 83%
    19:00 +15°C° 0 mm 7 m/s 763 mmHg 86%
    20:00 +14°C° 0 mm 7 m/s 763 mmHg 89%
    21:00 +14°C° 0 mm 7 m/s 763 mmHg 93%
    22:00 +14°C° 0 mm 6 m/s 763 mmHg 93%
    23:00 +14°C° 0 mm 6 m/s 763 mmHg 93%

    30 Agosto, Sexta-feira

    Tempo Temperatura Precipitação Vento Pressão Humidade
    00:00 +13°C° 0 mm 6 m/s 763 mmHg 93%
    01:00 +14°C° 0 mm 6 m/s 763 mmHg 91%
    02:00 +14°C° 0 mm 6 m/s 763 mmHg 89%
    03:00 +14°C° 0 mm 6 m/s 763 mmHg 87%
    04:00 +14°C° 0 mm 7 m/s 762 mmHg 89%
    05:00 +14°C° 0 mm 7 m/s 762 mmHg 90%
    06:00 +15°C° 0 mm 7 m/s 762 mmHg 92%
    07:00 +15°C° 0 mm 7 m/s 762 mmHg 90%
    08:00 +16°C° 0 mm 8 m/s 762 mmHg 87%
    09:00 +16°C° 0 mm 8 m/s 762 mmHg 85%
    10:00 +17°C° 0 mm 9 m/s 762 mmHg 83%
    11:00 +17°C° 0 mm 10 m/s 762 mmHg 81%
    12:00 +18°C° 0 mm 11 m/s 761 mmHg 80%
    13:00 +17°C° 0 mm 11 m/s 761 mmHg 81%
    14:00 +17°C° 0 mm 10 m/s 761 mmHg 83%
    15:00 +16°C° 0 mm 10 m/s 760 mmHg 84%
    16:00 +16°C° 0.1 mm 10 m/s 760 mmHg 85%
    17:00 +16°C° 0.1 mm 10 m/s 759 mmHg 85%
    18:00 +16°C° 0.1 mm 10 m/s 759 mmHg 86%
    19:00 +16°C° 0.1 mm 10 m/s 759 mmHg 87%
    20:00 +14°C° 0.1 mm 10 m/s 758 mmHg 89%
    21:00 +14°C° 0.1 mm 10 m/s 758 mmHg 90%
    22:00 +14°C° 0.1 mm 10 m/s 758 mmHg 90%
    23:00 +14°C° 0.1 mm 10 m/s 757 mmHg 91%

    31 Agosto, Sábado

    Tempo Temperatura Precipitação Vento Pressão Humidade
    00:00 +14°C° 0.1 mm 10 m/s 757 mmHg 91%
    01:00 +15°C° 0.2 mm 9 m/s 757 mmHg 91%
    02:00 +13°C° 0.2 mm 9 m/s 757 mmHg 91%
    03:00 +13°C° 0.2 mm 8 m/s 757 mmHg 92%
    04:00 +11°C° 0 mm 7 m/s 757 mmHg 92%
    05:00 +10°C° 0 mm 6 m/s 757 mmHg 93%
    06:00 +9°C° 0 mm 6 m/s 757 mmHg 93%
    07:00 +10°C° 0 mm 6 m/s 758 mmHg 89%
    08:00 +11°C° 0 mm 6 m/s 758 mmHg 85%
    09:00 +13°C° 0 mm 6 m/s 759 mmHg 80%
    10:00 +14°C° 0 mm 6 m/s 759 mmHg 76%
    11:00 +15°C° 0 mm 6 m/s 759 mmHg 71%
    12:00 +16°C° 0 mm 6 m/s 759 mmHg 66%
    13:00 +16°C° 0.1 mm 6 m/s 759 mmHg 68%
    14:00 +16°C° 0.1 mm 6 m/s 759 mmHg 69%
    15:00 +16°C° 0.1 mm 6 m/s 759 mmHg 71%
    16:00 +15°C° 0.1 mm 6 m/s 759 mmHg 74%
    17:00 +15°C° 0.1 mm 5 m/s 760 mmHg 77%
    18:00 +14°C° 0.1 mm 5 m/s 760 mmHg 80%
    19:00 +13°C° 0 mm 6 m/s 760 mmHg 83%
    20:00 +10°C° 0 mm 6 m/s 761 mmHg 86%
    21:00 +9°C° 0 mm 6 m/s 761 mmHg 89%
    22:00 +8°C° 0 mm 6 m/s 761 mmHg 90%
    23:00 +8°C° 0 mm 6 m/s 761 mmHg 91%
    Mostrar mais